StationID,Date,MaxTemp,MinTemp,Precipitation,Snowfall,SnowDepth
"USC00450845","1970-12-01",33.08,24.98,61.00,51.00,152.00
"USC00450845","1970-12-02",33.08,26.06,56.00,102.00,203.00
"USC00450845","1970-12-03",35.06,24.08,3.00,8.00,178.00
"USC00450845","1970-12-04",32.00,12.92,76.00,114.00,305.00
"USC00450845","1970-12-05",30.92,8.06,51.00,64.00,305.00
"USC00450845","1970-12-06",35.96,15.08,102.00,89.00,330.00
"USC00450845","1970-12-07",41.00,33.08,107.00,0.00,229.00
"USC00450845","1970-12-08",51.08,24.08,46.00,0.00,152.00
"USC00450845","1970-12-09",33.08,12.02,0.00,0.00,152.00
"USC00450845","1970-12-10",33.08,10.04,0.00,0.00,152.00
"USC00450845","1970-12-11",30.02,17.96,89.00,76.00,203.00
"USC00450845","1970-12-12",33.98,8.96,0.00,0.00,203.00
"USC00450845","1970-12-13",26.06,5.00,0.00,0.00,203.00
"USC00450845","1970-12-14",24.98,15.98,0.00,0.00,203.00
"USC00450845","1970-12-15",30.02,19.04,28.00,51.00,254.00
"USC00450845","1970-12-16",30.92,28.94,119.00,152.00,432.00
"USC00450845","1970-12-17",35.06,30.02,41.00,51.00,432.00
"USC00450845","1970-12-18",33.08,24.98,0.00,0.00,406.00
"USC00450845","1970-12-19",28.04,23.00,36.00,76.00,432.00
"USC00450845","1970-12-20",26.06,21.92,69.00,127.00,610.00
"USC00450845","1970-12-21",24.08,15.98,5.00,0.00,508.00
"USC00450845","1970-12-22",24.08,-9.94,0.00,0.00,457.00
"USC00450845","1970-12-23",12.92,-9.04,10.00,25.00,508.00
"USC00450845","1970-12-24",24.08,-0.94,0.00,0.00,457.00
"USC00450845","1970-12-25",21.92,1.04,5.00,8.00,457.00
"USC00450845","1970-12-26",23.00,21.02,0.00,0.00,432.00
"USC00450845","1970-12-27",28.04,21.02,30.00,76.00,508.00
"USC00450845","1970-12-28",28.94,24.98,66.00,114.00,610.00
"USC00450845","1970-12-29",35.06,28.04,97.00,127.00,660.00
"USC00450845","1970-12-30",35.96,26.96,36.00,64.00,635.00
"USC00450845","1970-12-31",37.94,19.04,0.00,0.00,610.00
"USC00450845","1971-01-01",39.02,6.98,25.00,13.00,610.00
"USC00450845","1971-01-02",28.94,-5.08,0.00,0.00,610.00
"USC00450845","1971-01-03",24.08,-5.98,0.00,0.00,610.00
"USC00450845","1971-01-04",17.06,-7.06,0.00,0.00,533.00
"USC00450845","1971-01-05",17.06,-5.08,0.00,0.00,533.00
"USC00450845","1971-01-06",19.94,3.02,0.00,0.00,533.00
"USC00450845","1971-01-07",19.04,6.08,8.00,8.00,533.00
"USC00450845","1971-01-08",21.02,17.06,0.00,0.00,533.00
"USC00450845","1971-01-09",26.96,21.02,13.00,25.00,533.00
"USC00450845","1971-01-10",30.92,21.02,13.00,25.00,610.00
"USC00450845","1971-01-11",33.08,21.02,64.00,127.00,711.00
"USC00450845","1971-01-12",24.08,14.00,43.00,76.00,737.00
"USC00450845","1971-01-13",17.96,8.06,36.00,76.00,762.00
"USC00450845","1971-01-14",24.98,10.04,48.00,76.00,787.00
"USC00450845","1971-01-15",24.08,12.92,89.00,102.00,914.00
"USC00450845","1971-01-16",39.92,23.00,38.00,0.00,711.00
"USC00450845","1971-01-17",37.94,32.00,25.00,0.00,533.00
"USC00450845","1971-01-18",39.02,28.94,13.00,0.00,508.00
"USC00450845","1971-01-19",39.92,32.00,51.00,0.00,457.00
"USC00450845","1971-01-20",42.08,24.98,20.00,0.00,432.00
"USC00450845","1971-01-21",35.96,24.98,0.00,8.00,432.00
"USC00450845","1971-01-22",33.08,10.94,0.00,8.00,432.00
"USC00450845","1971-01-23",26.06,17.06,25.00,64.00,432.00
"USC00450845","1971-01-24",35.96,24.98,30.00,38.00,457.00
"USC00450845","1971-01-25",37.94,19.94,10.00,8.00,457.00
"USC00450845","1971-01-26",32.00,23.00,36.00,38.00,483.00
"USC00450845","1971-01-27",37.04,28.04,0.00,0.00,432.00
"USC00450845","1971-01-28",39.92,30.02,0.00,0.00,406.00
"USC00450845","1971-01-29",42.08,32.00,0.00,0.00,406.00
"USC00450845","1971-01-30",37.04,32.00,81.00,0.00,406.00
"USC00450845","1971-01-31",42.08,33.08,0.00,0.00,381.00
"USC00450845","1971-02-01",44.96,33.08,0.00,0.00,381.00
"USC00450845","1971-02-02",41.00,28.94,0.00,0.00,330.00
"USC00450845","1971-02-03",39.02,19.04,0.00,0.00,330.00
"USC00450845","1971-02-04",30.92,15.98,76.00,127.00,457.00
"USC00450845","1971-02-05",35.06,1.04,0.00,0.00,432.00
"USC00450845","1971-02-06",30.02,-2.92,0.00,0.00,432.00
"USC00450845","1971-02-07",28.94,-0.04,0.00,0.00,432.00
"USC00450845","1971-02-08",33.08,1.04,0.00,0.00,406.00
"USC00450845","1971-02-09",39.02,3.02,0.00,0.00,406.00
"USC00450845","1971-02-10",26.06,6.98,94.00,114.00,483.00
"USC00450845","1971-02-11",35.06,24.98,10.00,0.00,483.00
"USC00450845","1971-02-12",35.96,30.92,10.00,0.00,457.00
"USC00450845","1971-02-13",39.92,32.00,10.00,0.00,432.00
"USC00450845","1971-02-14",39.92,33.08,8.00,0.00,406.00
"USC00450845","1971-02-15",42.08,30.92,41.00,0.00,381.00
"USC00450845","1971-02-16",39.92,28.04,0.00,0.00,381.00
"USC00450845","1971-02-17",44.06,17.96,0.00,0.00,381.00
"USC00450845","1971-02-18",39.92,17.96,0.00,0.00,381.00
"USC00450845","1971-02-19",35.06,24.98,33.00,51.00,406.00
"USC00450845","1971-02-20",44.96,15.98,0.00,0.00,381.00
"USC00450845","1971-02-21",44.06,17.06,0.00,0.00,356.00
"USC00450845","1971-02-22",39.92,24.98,0.00,0.00,330.00
"USC00450845","1971-02-23",37.94,26.06,0.00,0.00,330.00
"USC00450845","1971-02-24",37.04,28.04,25.00,25.00,381.00
"USC00450845","1971-02-25",41.00,28.04,13.00,51.00,406.00
"USC00450845","1971-02-26",37.94,12.02,0.00,8.00,406.00
"USC00450845","1971-02-27",35.96,10.04,18.00,51.00,432.00
"USC00450845","1971-02-28",28.94,17.06,10.00,25.00,432.00
"USC00450845","1971-03-01",35.96,1.94,0.00,0.00,406.00
"USC00450845","1971-03-02",32.00,5.00,0.00,0.00,406.00
"USC00450845","1971-03-03",24.98,3.92,8.00,20.00,406.00
"USC00450845","1971-03-04",39.02,12.92,0.00,0.00,406.00
"USC00450845","1971-03-05",32.00,12.02,0.00,0.00,406.00
"USC00450845","1971-03-06",37.04,10.04,0.00,0.00,406.00
"USC00450845","1971-03-07",35.06,17.96,13.00,25.00,406.00
"USC00450845","1971-03-08",35.06,26.96,30.00,51.00,457.00
"USC00450845","1971-03-09",33.98,24.98,5.00,0.00,457.00
"USC00450845","1971-03-10",35.06,24.98,8.00,0.00,457.00
"USC00450845","1971-03-11",35.06,26.96,99.00,38.00,483.00
"USC00450845","1971-03-12",39.02,26.06,51.00,38.00,508.00
"USC00450845","1971-03-13",44.06,26.06,0.00,0.00,483.00
"USC00450845","1971-03-14",48.02,19.04,0.00,0.00,457.00
"USC00450845","1971-03-15",37.94,24.98,0.00,0.00,432.00
"USC00450845","1971-03-16",39.92,21.92,20.00,25.00,457.00
"USC00450845","1971-03-17",42.98,8.96,0.00,0.00,457.00
"USC00450845","1971-03-18",44.06,8.96,0.00,0.00,432.00
"USC00450845","1971-03-19",46.04,10.04,0.00,0.00,432.00
"USC00450845","1971-03-20",51.98,14.00,0.00,0.00,406.00
"USC00450845","1971-03-21",44.96,12.02,0.00,0.00,406.00
"USC00450845","1971-03-22",44.96,21.92,0.00,0.00,406.00
"USC00450845","1971-03-23",32.00,21.92,36.00,76.00,457.00
"USC00450845","1971-03-24",37.04,24.98,18.00,0.00,432.00
"USC00450845","1971-03-25",46.94,28.04,8.00,0.00,381.00
"USC00450845","1971-03-26",44.96,28.94,71.00,76.00,432.00
"USC00450845","1971-03-27",37.94,30.02,76.00,0.00,432.00
"USC00450845","1971-03-28",39.92,28.04,0.00,0.00,406.00
"USC00450845","1971-03-29",41.00,32.00,8.00,0.00,381.00
"USC00450845","1971-03-30",46.94,37.94,0.00,0.00,279.00
"USC00450845","1971-03-31",50.00,23.00,0.00,0.00,254.00
"USC00450845","1971-04-01",,,0.00,0.00,
"USC00450845","1971-04-02",,,0.00,0.00,
"USC00450845","1971-04-03",,,0.00,0.00,
"USC00450845","1971-04-04",,,0.00,0.00,
"USC00450845","1971-04-05",60.08,17.96,0.00,0.00,102.00
"USC00450845","1971-04-06",66.02,26.06,0.00,0.00,76.00
"USC00450845","1971-04-07",62.96,32.00,0.00,0.00,25.00
"USC00450845","1971-04-08",48.02,23.00,0.00,0.00,25.00
"USC00450845","1971-04-09",51.08,24.98,152.00,0.00,0.00
"USC00450845","1971-04-10",44.96,28.94,251.00,0.00,0.00
"USC00450845","1971-04-11",44.06,28.04,25.00,25.00,25.00
"USC00450845","1971-04-12",37.04,26.06,36.00,0.00,0.00
"USC00450845","1971-04-13",50.00,23.00,0.00,0.00,0.00
"USC00450845","1971-04-14",62.96,24.98,0.00,0.00,0.00
"USC00450845","1971-04-15",60.08,32.00,0.00,0.00,0.00
"USC00450845","1971-04-16",51.08,23.00,0.00,0.00,0.00
"USC00450845","1971-04-17",48.92,26.96,0.00,0.00,0.00
"USC00450845","1971-04-18",44.96,30.02,0.00,0.00,0.00
"USC00450845","1971-04-19",57.92,26.96,0.00,0.00,0.00
"USC00450845","1971-04-20",66.02,26.96,0.00,0.00,0.00
"USC00450845","1971-04-21",60.98,30.92,64.00,0.00,0.00
"USC00450845","1971-04-22",42.98,30.92,10.00,0.00,0.00
"USC00450845","1971-04-23",55.04,35.96,13.00,0.00,0.00
"USC00450845","1971-04-24",55.94,35.96,0.00,0.00,0.00
"USC00450845","1971-04-25",69.08,33.08,0.00,0.00,0.00
"USC00450845","1971-04-26",64.94,28.04,0.00,0.00,0.00
"USC00450845","1971-04-27",64.04,28.94,0.00,0.00,0.00
"USC00450845","1971-04-28",60.08,39.02,5.00,0.00,0.00
"USC00450845","1971-04-29",46.94,30.02,0.00,0.00,0.00
"USC00450845","1971-04-30",51.08,28.04,0.00,0.00,0.00
"USC00450845","1971-05-01",64.94,28.94,0.00,0.00,0.00
"USC00450845","1971-05-02",71.06,33.08,0.00,0.00,0.00
"USC00450845","1971-05-03",77.00,35.06,0.00,0.00,0.00
"USC00450845","1971-05-04",78.98,35.06,0.00,0.00,0.00
"USC00450845","1971-05-05",77.00,37.04,0.00,0.00,0.00
"USC00450845","1971-05-06",51.98,41.00,91.00,0.00,0.00
"USC00450845","1971-05-07",66.02,32.00,0.00,0.00,0.00
"USC00450845","1971-05-08",73.94,35.06,0.00,0.00,0.00
"USC00450845","1971-05-09",73.94,39.02,0.00,0.00,0.00
"USC00450845","1971-05-10",68.00,35.06,0.00,0.00,0.00
"USC00450845","1971-05-11",75.02,37.04,0.00,0.00,0.00
"USC00450845","1971-05-12",80.96,39.02,0.00,0.00,0.00
"USC00450845","1971-05-13",80.96,41.00,84.00,0.00,0.00
"USC00450845","1971-05-14",57.02,32.00,28.00,0.00,0.00
"USC00450845","1971-05-15",55.04,28.04,0.00,0.00,0.00
"USC00450845","1971-05-16",53.06,35.96,20.00,0.00,0.00
"USC00450845","1971-05-17",48.92,35.96,23.00,0.00,0.00
"USC00450845","1971-05-18",60.98,32.00,0.00,0.00,0.00
"USC00450845","1971-05-19",60.98,35.06,0.00,0.00,0.00
"USC00450845","1971-05-20",48.92,37.04,51.00,0.00,0.00
"USC00450845","1971-05-21",46.94,30.02,18.00,0.00,0.00
"USC00450845","1971-05-22",69.98,32.00,0.00,0.00,0.00
"USC00450845","1971-05-23",73.94,37.04,0.00,0.00,0.00
"USC00450845","1971-05-24",78.08,44.96,0.00,0.00,0.00
"USC00450845","1971-05-25",75.92,46.04,0.00,0.00,0.00
"USC00450845","1971-05-26",64.04,39.92,81.00,0.00,0.00
"USC00450845","1971-05-27",71.96,44.96,0.00,0.00,0.00
"USC00450845","1971-05-28",77.00,33.98,0.00,0.00,0.00
"USC00450845","1971-05-29",78.08,35.06,0.00,0.00,0.00
"USC00450845","1971-05-30",75.02,44.96,38.00,0.00,0.00
"USC00450845","1971-05-31",48.92,44.06,33.00,0.00,0.00
"USC00450845","1971-06-01",55.04,44.06,15.00,0.00,0.00
"USC00450845","1971-06-02",73.94,46.04,0.00,0.00,0.00
"USC00450845","1971-06-03",51.98,41.00,46.00,0.00,0.00
"USC00450845","1971-06-04",66.02,42.98,25.00,0.00,0.00
"USC00450845","1971-06-05",57.92,46.94,58.00,0.00,0.00
"USC00450845","1971-06-06",60.98,50.00,81.00,0.00,0.00
"USC00450845","1971-06-07",68.00,44.96,0.00,0.00,0.00
"USC00450845","1971-06-08",59.00,48.02,18.00,0.00,0.00
"USC00450845","1971-06-09",57.02,37.94,76.00,0.00,0.00
"USC00450845","1971-06-10",64.94,39.92,0.00,0.00,0.00
"USC00450845","1971-06-11",55.94,44.96,25.00,0.00,0.00
"USC00450845","1971-06-12",62.06,37.94,0.00,0.00,0.00
"USC00450845","1971-06-13",73.04,37.94,43.00,0.00,0.00
"USC00450845","1971-06-14",55.04,39.02,124.00,0.00,0.00
"USC00450845","1971-06-15",60.08,37.04,18.00,0.00,0.00
"USC00450845","1971-06-16",62.06,37.04,0.00,0.00,0.00
"USC00450845","1971-06-17",68.00,37.04,0.00,0.00,0.00
"USC00450845","1971-06-18",69.98,41.00,0.00,0.00,0.00
"USC00450845","1971-06-19",64.04,39.92,20.00,0.00,0.00
"USC00450845","1971-06-20",66.92,41.00,43.00,0.00,0.00
"USC00450845","1971-06-21",73.04,44.06,0.00,0.00,0.00
"USC00450845","1971-06-22",84.02,50.00,0.00,0.00,0.00
"USC00450845","1971-06-23",84.02,53.96,18.00,0.00,0.00
"USC00450845","1971-06-24",69.98,37.04,3.00,0.00,0.00
"USC00450845","1971-06-25",69.08,44.96,99.00,0.00,0.00
"USC00450845","1971-06-26",64.04,37.04,48.00,0.00,0.00
"USC00450845","1971-06-27",64.94,39.92,13.00,0.00,0.00
"USC00450845","1971-06-28",60.08,37.04,15.00,0.00,0.00
"USC00450845","1971-06-29",60.08,42.08,5.00,0.00,0.00
"USC00450845","1971-06-30",66.92,37.04,0.00,0.00,0.00
"USC00450845","1971-07-01",71.96,46.94,0.00,0.00,0.00
"USC00450845","1971-07-02",73.94,37.04,0.00,0.00,0.00
"USC00450845","1971-07-03",69.98,33.08,0.00,0.00,0.00
"USC00450845","1971-07-04",71.06,39.02,0.00,0.00,0.00
"USC00450845","1971-07-05",71.06,37.94,51.00,0.00,0.00
"USC00450845","1971-07-06",57.92,39.92,20.00,0.00,0.00
"USC00450845","1971-07-07",55.04,32.00,23.00,0.00,0.00
"USC00450845","1971-07-08",69.98,37.04,0.00,0.00,0.00
"USC00450845","1971-07-09",71.96,44.06,0.00,0.00,0.00
"USC00450845","1971-07-10",69.98,46.04,206.00,0.00,0.00
"USC00450845","1971-07-11",60.08,44.96,8.00,0.00,0.00
"USC00450845","1971-07-12",60.98,37.94,8.00,0.00,0.00
"USC00450845","1971-07-13",71.06,39.92,0.00,0.00,0.00
"USC00450845","1971-07-14",78.98,39.92,0.00,0.00,0.00
"USC00450845","1971-07-15",84.02,42.98,0.00,0.00,0.00
"USC00450845","1971-07-16",89.06,46.94,0.00,0.00,0.00
"USC00450845","1971-07-17",89.06,44.06,0.00,0.00,0.00
"USC00450845","1971-07-18",89.06,46.04,0.00,0.00,0.00
"USC00450845","1971-07-19",93.92,51.08,0.00,0.00,0.00
"USC00450845","1971-07-20",93.92,51.08,0.00,0.00,0.00
"USC00450845","1971-07-21",95.00,51.08,0.00,0.00,0.00
"USC00450845","1971-07-22",95.00,51.08,0.00,0.00,0.00
"USC00450845","1971-07-23",91.94,50.00,0.00,0.00,0.00
"USC00450845","1971-07-24",91.94,50.00,0.00,0.00,0.00
"USC00450845","1971-07-25",84.92,44.96,0.00,0.00,0.00
"USC00450845","1971-07-26",86.00,46.04,0.00,0.00,0.00
"USC00450845","1971-07-27",89.96,46.94,0.00,0.00,0.00
"USC00450845","1971-07-28",93.02,48.92,0.00,0.00,0.00
"USC00450845","1971-07-29",84.92,44.96,0.00,0.00,0.00
"USC00450845","1971-07-30",89.96,48.92,0.00,0.00,0.00
"USC00450845","1971-07-31",93.92,51.08,0.00,0.00,0.00
"USC00450845","1971-08-01",98.06,53.06,0.00,0.00,0.00
"USC00450845","1971-08-02",98.06,50.00,0.00,0.00,0.00
"USC00450845","1971-08-03",91.94,50.00,0.00,0.00,0.00
"USC00450845","1971-08-04",86.00,44.96,0.00,0.00,0.00
"USC00450845","1971-08-05",89.06,48.92,0.00,0.00,0.00
"USC00450845","1971-08-06",96.08,53.96,0.00,0.00,0.00
"USC00450845","1971-08-07",87.08,50.00,0.00,0.00,0.00
"USC00450845","1971-08-08",95.00,53.96,0.00,0.00,0.00
"USC00450845","1971-08-09",96.08,46.94,0.00,0.00,0.00
"USC00450845","1971-08-10",91.94,46.94,0.00,0.00,0.00
"USC00450845","1971-08-11",96.08,46.94,0.00,0.00,0.00
"USC00450845","1971-08-12",98.06,48.02,0.00,0.00,0.00
"USC00450845","1971-08-13",93.92,42.08,0.00,0.00,0.00
"USC00450845","1971-08-14",93.02,46.04,0.00,0.00,0.00
"USC00450845","1971-08-15",80.96,39.02,0.00,0.00,0.00
"USC00450845","1971-08-16",82.94,42.08,0.00,0.00,0.00
"USC00450845","1971-08-17",80.96,39.02,0.00,0.00,0.00
"USC00450845","1971-08-18",80.06,39.92,0.00,0.00,0.00
"USC00450845","1971-08-19",82.94,42.98,0.00,0.00,0.00
"USC00450845","1971-08-20",89.06,44.96,0.00,0.00,0.00
"USC00450845","1971-08-21",82.94,42.98,0.00,0.00,0.00
"USC00450845","1971-08-22",80.96,46.94,23.00,0.00,0.00
"USC00450845","1971-08-23",62.96,44.06,36.00,0.00,0.00
"USC00450845","1971-08-24",69.08,35.96,0.00,0.00,0.00
"USC00450845","1971-08-25",80.96,37.04,0.00,0.00,0.00
"USC00450845","1971-08-26",86.00,41.00,0.00,0.00,0.00
"USC00450845","1971-08-27",89.06,42.08,0.00,0.00,0.00
"USC00450845","1971-08-28",89.96,48.92,0.00,0.00,0.00
"USC00450845","1971-08-29",87.98,46.04,0.00,0.00,0.00
"USC00450845","1971-08-30",91.94,50.00,0.00,0.00,0.00
"USC00450845","1971-08-31",82.04,53.06,25.00,0.00,0.00
"USC00450845","1971-09-01",64.04,44.96,114.00,0.00,0.00
"USC00450845","1971-09-02",55.04,44.96,66.00,0.00,0.00
"USC00450845","1971-09-03",60.08,44.96,53.00,0.00,0.00
"USC00450845","1971-09-04",64.04,46.94,8.00,0.00,0.00
"USC00450845","1971-09-05",68.00,37.94,0.00,0.00,0.00
"USC00450845","1971-09-06",80.06,37.94,173.00,0.00,0.00
"USC00450845","1971-09-07",57.92,42.98,38.00,0.00,0.00
"USC00450845","1971-09-08",64.94,35.06,0.00,0.00,0.00
"USC00450845","1971-09-09",71.96,37.04,10.00,0.00,0.00
"USC00450845","1971-09-10",71.06,39.92,0.00,0.00,0.00
"USC00450845","1971-09-11",78.08,39.92,0.00,0.00,0.00
"USC00450845","1971-09-12",69.98,44.96,20.00,0.00,0.00
"USC00450845","1971-09-13",68.00,33.08,0.00,0.00,0.00
"USC00450845","1971-09-14",64.04,26.96,0.00,0.00,0.00
"USC00450845","1971-09-15",62.96,24.98,0.00,0.00,0.00
"USC00450845","1971-09-16",64.04,26.06,0.00,0.00,0.00
"USC00450845","1971-09-17",64.94,24.98,0.00,0.00,0.00
"USC00450845","1971-09-18",64.94,24.98,0.00,0.00,0.00
"USC00450845","1971-09-19",68.00,26.96,0.00,0.00,0.00
"USC00450845","1971-09-20",66.92,32.00,20.00,0.00,0.00
"USC00450845","1971-09-21",62.06,26.96,0.00,0.00,0.00
"USC00450845","1971-09-22",66.92,26.96,0.00,0.00,0.00
"USC00450845","1971-09-23",71.96,28.04,0.00,0.00,0.00
"USC00450845","1971-09-24",75.02,30.92,0.00,0.00,0.00
"USC00450845","1971-09-25",62.96,32.00,30.00,0.00,0.00
"USC00450845","1971-09-26",53.96,35.06,8.00,0.00,0.00
"USC00450845","1971-09-27",53.06,39.92,48.00,0.00,0.00
"USC00450845","1971-09-28",46.94,39.02,58.00,0.00,0.00
"USC00450845","1971-09-29",51.98,35.96,71.00,0.00,0.00
"USC00450845","1971-09-30",44.96,30.02,76.00,0.00,0.00
"USC00450845","1971-10-01",55.04,28.94,0.00,0.00,0.00
"USC00450845","1971-10-02",60.98,26.96,0.00,0.00,0.00
"USC00450845","1971-10-03",62.96,30.92,0.00,0.00,0.00
"USC00450845","1971-10-04",53.96,37.04,0.00,0.00,0.00
"USC00450845","1971-10-05",68.00,37.94,0.00,0.00,0.00
"USC00450845","1971-10-06",73.94,39.02,0.00,0.00,0.00
"USC00450845","1971-10-07",64.04,39.92,0.00,0.00,0.00
"USC00450845","1971-10-08",69.98,33.08,0.00,0.00,0.00
"USC00450845","1971-10-09",73.04,28.94,0.00,0.00,0.00
"USC00450845","1971-10-10",69.98,30.02,0.00,0.00,0.00
"USC00450845","1971-10-11",69.08,30.92,0.00,0.00,0.00
"USC00450845","1971-10-12",60.08,28.04,0.00,0.00,0.00
"USC00450845","1971-10-13",51.98,28.04,0.00,0.00,0.00
"USC00450845","1971-10-14",59.00,21.92,15.00,0.00,0.00
"USC00450845","1971-10-15",48.92,21.92,0.00,0.00,0.00
"USC00450845","1971-10-16",51.08,19.04,0.00,0.00,0.00
"USC00450845","1971-10-17",51.98,15.98,0.00,0.00,0.00
"USC00450845","1971-10-18",51.08,15.98,0.00,0.00,0.00
"USC00450845","1971-10-19",51.08,26.96,58.00,0.00,0.00
"USC00450845","1971-10-20",46.04,28.04,279.00,0.00,0.00
"USC00450845","1971-10-21",46.94,26.96,38.00,0.00,0.00
"USC00450845","1971-10-22",48.02,30.02,10.00,0.00,0.00
"USC00450845","1971-10-23",51.08,33.08,13.00,0.00,0.00
"USC00450845","1971-10-24",44.96,33.08,58.00,0.00,0.00
"USC00450845","1971-10-25",44.96,30.02,10.00,0.00,0.00
"USC00450845","1971-10-26",44.06,32.00,13.00,0.00,0.00
"USC00450845","1971-10-27",44.06,14.00,0.00,0.00,0.00
"USC00450845","1971-10-28",37.94,12.02,0.00,0.00,0.00
"USC00450845","1971-10-29",37.94,10.04,0.00,0.00,0.00
"USC00450845","1971-10-30",33.08,8.96,0.00,0.00,0.00
"USC00450845","1971-10-31",33.08,21.02,33.00,51.00,51.00
"USC00450845","1971-11-01",32.00,23.00,112.00,114.00,152.00
"USC00450845","1971-11-02",44.06,23.00,0.00,0.00,127.00
"USC00450845","1971-11-03",35.06,24.98,38.00,38.00,127.00
"USC00450845","1971-11-04",37.04,28.94,130.00,0.00,76.00
"USC00450845","1971-11-05",41.00,6.98,0.00,0.00,76.00
"USC00450845","1971-11-06",35.96,5.00,0.00,0.00,51.00
"USC00450845","1971-11-07",35.06,14.00,0.00,8.00,51.00
"USC00450845","1971-11-08",30.02,23.00,43.00,76.00,127.00
"USC00450845","1971-11-09",35.06,23.00,0.00,0.00,102.00
"USC00450845","1971-11-10",44.96,23.00,18.00,0.00,51.00
"USC00450845","1971-11-11",41.00,30.02,30.00,0.00,25.00
"USC00450845","1971-11-12",41.00,30.92,5.00,0.00,25.00
"USC00450845","1971-11-13",39.02,32.00,8.00,0.00,0.00
"USC00450845","1971-11-14",42.08,32.00,13.00,0.00,0.00
"USC00450845","1971-11-15",39.02,32.00,5.00,0.00,0.00
"USC00450845","1971-11-16",39.02,28.04,0.00,0.00,0.00
"USC00450845","1971-11-17",44.96,21.02,0.00,0.00,0.00
"USC00450845","1971-11-18",39.92,19.04,0.00,0.00,0.00
"USC00450845","1971-11-19",32.00,19.04,18.00,25.00,25.00
"USC00450845","1971-11-20",33.98,28.94,8.00,0.00,0.00
"USC00450845","1971-11-21",37.94,30.92,0.00,0.00,0.00
"USC00450845","1971-11-22",44.96,21.02,0.00,0.00,0.00
"USC00450845","1971-11-23",42.98,19.04,0.00,0.00,0.00
"USC00450845","1971-11-24",32.00,23.00,43.00,51.00,51.00
"USC00450845","1971-11-25",33.98,28.04,5.00,0.00,51.00
"USC00450845","1971-11-26",35.96,28.94,30.00,25.00,51.00
"USC00450845","1971-11-27",35.06,28.94,10.00,8.00,51.00
"USC00450845","1971-11-28",35.96,28.94,5.00,0.00,51.00
"USC00450845","1971-11-29",37.04,28.94,0.00,0.00,25.00
"USC00450845","1971-11-30",37.94,24.08,0.00,0.00,25.00
"USC00450845","1971-12-01",33.08,24.98,0.00,0.00,25.00
"USC00450845","1971-12-02",39.02,14.00,0.00,0.00,25.00
"USC00450845","1971-12-03",28.94,15.98,41.00,89.00,102.00
"USC00450845","1971-12-04",33.98,21.02,0.00,0.00,102.00
"USC00450845","1971-12-05",30.02,23.00,165.00,203.00,279.00
"USC00450845","1971-12-06",33.98,23.00,10.00,8.00,279.00
"USC00450845","1971-12-07",28.04,-5.08,0.00,0.00,254.00
"USC00450845","1971-12-08",21.92,-5.98,10.00,25.00,279.00
"USC00450845","1971-12-09",17.96,10.04,137.00,127.00,381.00
"USC00450845","1971-12-10",30.02,10.04,15.00,46.00,381.00
"USC00450845","1971-12-11",30.92,-0.04,0.00,0.00,381.00
"USC00450845","1971-12-12",26.96,-0.04,0.00,0.00,356.00
"USC00450845","1971-12-13",24.98,15.98,0.00,0.00,356.00
"USC00450845","1971-12-14",26.96,12.02,140.00,356.00,686.00
"USC00450845","1971-12-15",30.92,5.00,0.00,0.00,584.00
"USC00450845","1971-12-16",23.00,-2.92,0.00,0.00,533.00
"USC00450845","1971-12-17",24.98,8.06,74.00,64.00,533.00
"USC00450845","1971-12-18",33.98,21.92,0.00,0.00,483.00
"USC00450845","1971-12-19",35.06,10.04,0.00,0.00,457.00
"USC00450845","1971-12-20",24.08,15.08,41.00,114.00,533.00
"USC00450845","1971-12-21",35.06,17.96,112.00,178.00,660.00
"USC00450845","1971-12-22",35.96,28.94,102.00,76.00,660.00
"USC00450845","1971-12-23",35.96,26.96,140.00,0.00,584.00
"USC00450845","1971-12-24",33.98,28.04,28.00,51.00,584.00
"USC00450845","1971-12-25",37.04,28.04,81.00,89.00,660.00
"USC00450845","1971-12-26",33.08,8.06,15.00,20.00,635.00
"USC00450845","1971-12-27",17.06,-5.98,0.00,0.00,610.00
"USC00450845","1971-12-28",17.06,1.04,0.00,0.00,610.00
"USC00450845","1971-12-29",21.92,3.02,10.00,25.00,635.00
"USC00450845","1971-12-30",21.92,5.00,0.00,25.00,635.00
"USC00450845","1971-12-31",24.98,10.04,25.00,38.00,635.00
"USC00450845","1972-01-01",30.02,19.04,0.00,0.00,610.00
"USC00450845","1972-01-02",30.92,17.96,8.00,13.00,635.00
"USC00450845","1972-01-03",35.06,1.94,0.00,0.00,610.00
"USC00450845","1972-01-04",21.92,1.04,23.00,38.00,635.00
"USC00450845","1972-01-05",21.02,10.04,23.00,51.00,686.00
"USC00450845","1972-01-06",24.08,15.08,0.00,0.00,660.00
"USC00450845","1972-01-07",32.00,21.92,13.00,25.00,660.00
"USC00450845","1972-01-08",26.06,21.02,30.00,64.00,686.00
"USC00450845","1972-01-09",41.00,23.00,15.00,0.00,660.00
"USC00450845","1972-01-10",33.08,12.92,5.00,25.00,660.00
"USC00450845","1972-01-11",30.02,15.08,127.00,152.00,762.00
"USC00450845","1972-01-12",33.08,10.04,20.00,51.00,762.00
"USC00450845","1972-01-13",26.06,-7.06,0.00,0.00,737.00
"USC00450845","1972-01-14",19.04,-11.92,0.00,0.00,737.00
"USC00450845","1972-01-15",15.98,-5.98,30.00,51.00,737.00
"USC00450845","1972-01-16",19.04,6.98,0.00,0.00,737.00
"USC00450845","1972-01-17",35.96,12.92,0.00,0.00,711.00
"USC00450845","1972-01-18",35.06,1.94,30.00,51.00,737.00
"USC00450845","1972-01-19",21.02,1.94,15.00,13.00,711.00
"USC00450845","1972-01-20",37.94,17.96,30.00,0.00,660.00
"USC00450845","1972-01-21",41.00,32.00,15.00,0.00,610.00
"USC00450845","1972-01-22",42.98,21.02,0.00,0.00,533.00
"USC00450845","1972-01-23",39.92,21.02,28.00,51.00,584.00
"USC00450845","1972-01-24",32.00,8.06,69.00,102.00,686.00
"USC00450845","1972-01-25",19.94,5.00,51.00,89.00,686.00
"USC00450845","1972-01-26",12.02,-9.04,0.00,0.00,660.00
"USC00450845","1972-01-27",14.00,-9.94,0.00,0.00,660.00
"USC00450845","1972-01-28",14.00,-13.00,0.00,0.00,660.00